Location: *
(34.6903°N, 135.5184°E)
Time: 11:18:26
(UTC+00:00)

Cosmos 923 Rocket - Pass Details

Date: 22 September 2019
Orbit: 759 x 785 km, 74.0° (Epoch: 14 October)

Event Time Altitude Azimuth Distance (km) Brightness Sun altitude
Exits shadow 19:14:18 19° 201° (SSW) 1,798 5.6 -19.5°
Maximum altitude 19:18:12 80° 287° (WNW) 800 3.9 -18.7°
Drops below altitude 10° 19:23:33 10° 15° (NNE) 2,344 6.9 -17.6°
Sets 19:25:56 0° 16° (NNE) 3,273 7.7 -17.2°
